THORAD AGENA D DEB, 4755

Orbit data source: Space-Track

THORAD AGENA D DEB, 4755 is space debris in SSO originally from a launch on Wed, 08 Apr 1970 UTC launched from the Air Force Western Test Range (AFWTR). Debris objects in space refer to the collection of defunct objects orbiting the Earth. Examples of debris include non-operational satellites, rocket bodies, and fragments generated from explosions, collisions, or faulty payload assembly.

Loading next visibility...
Identifier
4755, 1970-025DD
Orbit
SSO
Country
Flag of USUS
Related business
Manufacturer
Unknown
Mission
Spacecraft
Bus & Motor
Unknown
Mass
Unknown
Launch date (UTC)
1970-04-08 (56 years ago)
Launch vehicle
Unknown
Launch site
Air Force Western Test Range (AFWTR)
Object type
Payload
Rocket body
Debris
Shape & HBR
Unknown shape, 0.2 m
Radar Cross Section
Medium (>0.1 m² and <1 m²)

Expand to show TLE details & history
Last TLE update: 14 hours ago

TLE from 14 hours ago
0 THORAD AGENA D DEB
1 04755U 70025DD  26255.63422679  .00001729  00000-0  12479-2 0  9998
2 04755 100.1395 121.6800 0004212 100.0838 260.0797 13.98322629823008
Epoch: 2026-09-12T15:13Z
TLE epoch observation values (Epoch: 2026-09-12T15:13:17.194Z)
Latitude
-0.00003°
Longitude
-98.28205°
Altitude
902.975 km
Speed
7.4 km/s
True Right ascension
08h 06m 43s
True Declination
0° 00' 00"
Sunlit
Object was in daylight at epoch
Visualization orbit readout
Latitude
Unknown
Longitude
Unknown
Altitude
Unknown
Speed
Unknown
Apparent Right ascension
Unknown
Apparent Declination
Unknown
Sunlit
N/A
Visualization observer readout
Local Sidereal Time
21:20:41
Azimuth
Unknown
Elevation
Unknown
Doppler factor
Unknown
Orbital elements
Apogee altitude
899.934 km
Perigee altitude
893.806 km
Semi-major axis
7,275.007 km
Eccentricity
0.00042
Inclination
100.1395°
RAAN
121.68°
Arg. of periapsis
100.0838°
True anomaly
260.03216°
Mean anomaly
260.0797°
Eccentric anomaly
260.05593°
Mean motion
3.49778 °/min
Orbital period
102.92 mins
BSTAR
0.0012479
Loading maneuver chart data...
Computing Atmospheric mass density...
Loading historical data...
Loading historical data...
Loading historical data...
Loading historical data...
Loading historical data...
Loading historical data...
Loading historical data...

Documentation

Showing up to 5 results
|